TimeEDT,TemperatureF,Dew PointF,Humidity,Sea Level PressureIn,VisibilityMPH,Wind Direction,Wind SpeedMPH,Gust SpeedMPH,PrecipitationIn,Events,Conditions,WindDirDegrees,DateUTC
12:53 AM,57.0,50.0,77,30.35,10.0,East,3.5,-,N/A,,Overcast,80,2013-04-27 04:53:00
1:53 AM,60.1,43.0,53,30.36,10.0,Calm,Calm,-,N/A,,Clear,0,2013-04-27 05:53:00
2:53 AM,57.0,44.1,62,30.35,10.0,Calm,Calm,-,N/A,,Scattered Clouds,0,2013-04-27 06:53:00
3:53 AM,57.0,44.1,62,30.36,10.0,Calm,Calm,-,N/A,,Mostly Cloudy,0,2013-04-27 07:53:00
4:53 AM,55.9,44.1,64,30.35,10.0,Calm,Calm,-,N/A,,Overcast,0,2013-04-27 08:53:00
5:53 AM,55.0,45.0,69,30.36,10.0,Calm,Calm,-,N/A,,Overcast,0,2013-04-27 09:53:00
6:53 AM,54.0,46.9,77,30.37,10.0,Calm,Calm,-,N/A,,Overcast,0,2013-04-27 10:53:00
7:53 AM,55.0,48.0,77,30.39,10.0,Calm,Calm,-,N/A,,Overcast,0,2013-04-27 11:53:00
8:53 AM,55.9,48.0,75,30.39,10.0,Calm,Calm,-,N/A,,Overcast,0,2013-04-27 12:53:00
9:53 AM,59.0,50.0,72,30.37,9.0,SSW,3.5,-,N/A,,Overcast,200,2013-04-27 13:53:00
10:53 AM,62.1,46.0,56,30.38,10.0,Variable,3.5,-,N/A,,Overcast,0,2013-04-27 14:53:00
11:53 AM,64.0,45.0,50,30.37,10.0,Calm,Calm,-,N/A,,Overcast,0,2013-04-27 15:53:00
12:53 PM,66.9,45.0,45,30.35,10.0,Calm,Calm,-,N/A,,Mostly Cloudy,0,2013-04-27 16:53:00
1:53 PM,68.0,46.9,47,30.33,10.0,Variable,3.5,-,N/A,,Mostly Cloudy,0,2013-04-27 17:53:00
2:53 PM,66.9,48.9,52,30.35,10.0,West,6.9,-,0.00,Rain,Light Rain,260,2013-04-27 18:53:00
3:53 PM,62.1,54.0,75,30.35,9.0,West,4.6,-,0.01,Rain,Light Rain,270,2013-04-27 19:53:00
4:53 PM,59.0,57.0,93,30.36,4.0,West,4.6,-,0.04,Rain,Light Rain,280,2013-04-27 20:53:00
5:53 PM,57.9,53.1,84,30.35,8.0,West,3.5,-,0.06,Rain,Light Rain,280,2013-04-27 21:53:00
6:53 PM,57.0,55.0,93,30.32,7.0,NE,3.5,-,0.02,Rain,Light Rain,50,2013-04-27 22:53:00
7:53 PM,57.0,55.9,96,30.31,6.0,Calm,Calm,-,0.00,Rain,Light Rain,0,2013-04-27 23:53:00
8:53 PM,55.9,55.0,97,30.32,4.0,Calm,Calm,-,0.00,Rain,Light Rain,0,2013-04-28 00:53:00
9:34 PM,57.2,55.4,94,30.29,2.0,Calm,Calm,-,0.00,Rain,Light Rain,0,2013-04-28 01:34:00
9:53 PM,57.0,55.9,96,30.31,3.0,Calm,Calm,-,0.00,Rain,Light Rain,0,2013-04-28 01:53:00
10:53 PM,57.0,55.0,93,30.30,7.0,ENE,3.5,-,0.00,,Overcast,60,2013-04-28 02:53:00
11:53 PM,57.0,54.0,89,30.27,10.0,Calm,Calm,-,N/A,,Overcast,0,2013-04-28 03:53:00